Wind_Speed
15 14 14 14 14 14 14 13 13 13 13 13 12 12 11 11 11 11 11 11 11 10 10 10 9 9 10 9 9 9 9 9 8 8 8 7 6 6 6 5 6 6 5 5
15 15 15 15 15 14 14 14 14 14 14 14 13 12 12 12 11 11 11 11 11 10 10 10 9 9 10 9 9 9 9 9 8 7 7 7 6 5 5 5 5 6 5 5
16 16 15 15 14 14 14 15 15 15 14 14 15 14 13 13 13 12 12 12 11 11 10 10 10 9 9 9 9 9 9 9 8 7 7 7 6 6 5 5 5 5 6 6
16 16 16 16 16 15 15 15 16 15 15 16 16 15 13 13 13 13 12 12 12 12 11 10 10 9 9 9 10 10 9 9 8 7 7 7 6 6 6 6 6 6 6 6
16 16 16 16 16 16 16 16 17 17 17 17 17 17 14 14 14 14 13 13 13 13 12 11 10 10 9 9 10 10 9 9 8 7 7 7 7 6 6 7 6 6 7 7
16 17 17 17 17 17 16 17 18 18 18 18 17 17 15 15 15 15 14 14 13 13 13 12 11 11 10 10 10 10 10 9 8 8 7 7 7 6 6 7 7 7 7 8
16 17 17 18 18 17 17 18 19 19 19 18 17 17 16 16 15 15 15 14 14 13 13 13 12 12 11 11 10 10 10 9 9 8 8 8 7 7 7 7 7 7 7 7
17 17 18 18 18 18 18 19 19 19 19 18 17 16 15 16 16 16 16 15 15 14 14 14 13 12 12 12 11 10 11 10 9 9 9 8 8 8 7 7 8 8 8 8
18 18 18 18 18 18 18 18 19 19 19 18 17 16 15 15 16 16 16 16 15 15 14 14 13 13 13 12 11 10 10 10 10 9 9 9 9 8 8 8 8 8 8 8
19 19 19 19 19 19 19 18 18 19 19 19 17 16 15 16 17 17 17 17 16 15 15 14 14 14 13 13 12 11 10 10 10 10 9 10 9 9 8 8 8 8 7 8
20 19 19 19 19 19 19 19 19 20 20 20 19 17 16 17 17 18 18 17 17 16 15 16 15 15 14 14 13 12 11 11 10 10 10 9 9 10 9 9 8 8 8 8
20 20 20 19 19 20 20 20 20 21 21 21 21 18 18 18 18 19 19 19 18 17 16 16 16 16 15 15 14 13 12 12 11 10 10 10 10 10 10 9 9 9 9 8
21 21 21 21 20 20 21 21 22 22 22 22 22 19 18 19 19 20 20 19 19 18 17 17 16 17 16 15 15 14 13 13 12 11 11 11 10 10 10 10 9 9 9 9
22 22 22 22 21 22 22 23 23 23 23 23 22 20 19 19 20 20 20 20 20 19 18 18 17 18 17 16 16 15 15 13 12 12 12 11 11 11 10 10 10 10 10 9
23 23 23 23 23 23 24 24 24 24 24 24 23 22 21 20 21 21 21 21 21 20 19 19 18 19 17 17 17 17 16 14 13 13 12 12 12 12 11 11 11 10 10 10
24 25 24 24 24 25 25 24 24 24 25 25 25 23 22 22 22 22 21 21 21 20 20 19 19 19 19 18 17 17 17 16 15 14 13 14 13 13 12 12 11 11 11 11
25 25 25 25 24 26 25 23 24 24 24 25 25 24 23 23 24 23 23 22 21 20 20 20 20 19 19 18 18 17 17 17 16 15 15 15 15 14 14 13 12 12 12 12
24 25 26 26 25 26 23 22 23 24 24 24 24 23 23 23 24 24 24 22 21 21 20 20 20 20 19 19 19 19 19 18 17 16 16 16 16 15 14 14 13 13 13 13
25 26 27 27 26 25 23 22 23 24 24 23 23 23 22 22 23 24 23 23 22 21 20 20 20 20 20 21 21 21 20 20 19 18 17 17 16 16 15 15 14 14 14 13
26 26 27 27 27 26 24 24 24 25 24 24 24 23 23 24 24 22 22 23 22 21 22 21 20 20 20 22 22 21 21 21 20 19 19 18 18 17 16 16 16 16 15 14
26 27 27 27 28 27 25 25 25 25 24 24 24 25 25 25 24 22 22 22 21 21 22 21 21 20 20 21 22 22 22 22 22 21 20 20 19 19 18 17 17 17 17 16
27 28 28 28 29 27 26 27 27 27 26 26 25 25 25 26 25 24 23 22 21 21 21 21 21 21 21 20 22 23 22 23 23 22 21 21 21 20 19 18 18 17 17 17
27 27 28 28 28 27 27 27 28 28 28 28 27 27 27 26 25 25 24 23 23 22 22 21 21 21 22 22 21 22 23 24 23 23 22 21 21 20 20 19 19 19 18 18
27 27 27 28 27 27 28 28 28 29 30 29 28 28 28 27 26 25 24 24 24 22 22 22 22 22 22 23 22 21 22 24 24 23 23 22 22 21 21 21 20 20 19 18
26 27 27 27 26 27 27 28 29 29 30 30 29 28 28 27 27 25 24 25 25 24 23 23 23 23 22 22 23 23 23 24 24 24 23 24 24 23 23 22 22 21 21 20
25 26 27 26 26 28 27 27 29 30 29 29 29 28 28 28 27 27 27 26 26 25 25 24 24 25 24 24 23 23 23 24 25 25 24 24 24 24 24 24 23 23 22 22
Wind_Direction
256 257 258 262 264 268 272 273 275 276 277 281 285 287 285 285 287 291 295 298 301 304 306 307 310 309 308 304 301 302 307 311 310 309 306 300 293 292 286 277 273 266 264 261
254 254 257 259 262 266 271 272 273 275 278 280 282 282 280 281 283 287 291 294 296 300 302 303 305 306 307 306 302 299 302 304 304 302 299 292 286 286 280 272 269 264 259 259
255 256 256 259 262 266 270 273 274 276 278 280 285 283 279 277 279 283 285 288 292 296 301 303 303 303 303 304 303 301 302 300 297 294 293 289 285 283 282 275 264 260 257 254
256 257 257 260 263 266 269 271 274 276 279 282 284 282 277 276 277 279 282 284 287 290 293 296 298 300 300 299 300 300 299 295 295 293 290 284 283 280 276 273 266 261 259 255
259 259 259 260 263 266 268 270 273 277 280 280 279 278 277 276 276 277 279 281 283 285 287 288 290 295 296 296 296 297 297 295 295 295 286 276 275 275 270 266 268 266 264 262
260 261 261 262 262 265 268 269 272 275 276 278 277 277 277 277 275 276 278 279 280 280 282 283 284 288 290 291 290 290 291 291 288 288 287 279 276 275 272 270 270 267 266 264
260 261 262 263 264 264 268 270 274 274 275 278 279 278 278 278 276 276 276 276 278 279 280 281 280 282 284 285 284 284 286 286 284 282 282 277 273 275 274 270 271 267 266 263
261 264 265 265 265 267 268 270 274 277 278 279 279 280 279 277 277 276 276 275 275 277 278 279 280 279 280 280 280 282 285 285 281 278 279 276 275 273 271 271 269 268 266 261
262 264 265 266 266 267 269 271 272 276 277 277 277 277 277 277 277 277 276 274 274 274 276 275 277 277 275 275 276 279 282 282 280 279 275 273 273 268 267 270 270 268 264 258
263 265 266 265 266 266 270 272 273 274 278 279 278 277 275 275 278 277 276 274 272 272 272 272 273 274 272 271 271 275 277 275 273 272 271 269 265 265 268 268 266 264 257 254
266 266 265 265 264 266 268 269 270 273 276 279 280 277 275 276 278 278 275 275 273 272 268 268 270 271 270 269 268 269 273 273 271 268 266 265 260 261 264 265 263 260 257 255
264 265 265 267 267 267 268 270 272 273 276 277 278 278 279 277 277 276 274 273 273 272 268 267 267 268 267 266 266 266 268 268 267 266 265 264 258 259 262 263 259 257 255 255
263 264 265 265 267 268 269 270 272 272 272 273 275 276 280 277 276 276 274 272 270 270 270 268 265 264 262 262 263 264 265 263 261 261 262 260 254 256 259 259 256 255 255 254
263 265 266 267 268 268 268 269 270 271 272 272 273 273 274 274 274 273 272 270 268 268 267 267 266 263 261 260 260 261 259 259 257 259 259 256 251 252 255 256 255 254 251 250
264 265 266 268 269 269 270 270 270 270 272 272 272 273 271 271 270 271 272 271 269 268 266 264 264 261 261 259 257 255 254 254 254 256 255 251 251 251 251 252 252 252 251 249
265 266 267 269 270 270 270 272 271 270 271 272 271 272 272 270 269 270 271 272 272 269 263 261 261 259 258 256 253 252 251 250 249 251 251 248 249 251 249 250 251 250 251 250
266 266 267 268 267 269 271 272 271 271 271 273 272 271 271 269 268 269 270 270 272 271 263 259 258 256 256 254 250 249 249 247 246 247 246 246 249 250 248 246 247 248 250 250
265 266 268 269 269 270 272 271 272 272 271 273 273 272 271 270 269 269 270 270 270 267 263 261 261 257 255 250 248 250 248 245 245 245 243 246 250 248 246 244 244 246 250 251
264 266 268 270 272 273 273 272 272 272 271 271 273 273 271 270 269 270 270 268 266 264 263 260 261 260 253 248 248 248 247 245 245 244 244 246 249 246 244 243 244 246 248 250
264 266 268 270 273 276 277 273 272 273 272 271 270 270 269 269 269 269 268 266 264 263 261 258 258 260 256 250 246 246 246 244 244 243 243 245 247 245 242 242 245 247 248 249
266 267 268 270 272 274 276 275 273 273 274 273 271 271 270 269 269 267 265 263 262 261 259 258 257 256 257 256 251 246 244 245 245 244 244 244 244 242 241 241 243 246 247 248
267 269 268 269 270 273 274 273 273 274 274 274 272 270 268 268 267 266 265 261 259 259 258 259 258 257 257 258 254 249 243 242 244 244 244 244 242 241 240 240 243 244 245 247
267 269 270 271 272 272 271 272 272 272 273 273 272 270 268 268 265 267 265 260 257 256 257 258 259 259 257 256 255 251 247 241 240 241 243 244 243 242 241 243 244 244 246 248
268 270 271 271 272 271 271 271 272 272 272 273 272 270 268 266 264 265 261 258 257 257 257 258 259 260 259 256 254 252 248 243 239 240 241 242 242 242 242 243 245 246 246 248
271 270 271 273 272 269 270 271 271 272 271 271 271 269 266 264 262 261 259 257 256 256 255 256 259 258 258 257 254 251 250 245 242 241 241 242 242 242 241 243 244 246 246 247
272 273 272 274 274 271 271 271 271 271 271 270 268 267 264 262 260 257 257 257 257 255 255 256 258 257 256 257 255 251 249 247 245 244 242 242 241 240 239 242 243 245 245 247
Height
5856 5858 5858 5859 5860 5860 5861 5861 5861 5861 5861 5861 5860 5860 5860 5859 5858 5857 5857 5856 5855 5855 5853 5852 5851 5850 5849 5848 5847 5846 5845 5844 5843 5843 5842 5841 5841 5840 5840 5840 5840 5840 5840 5841
5854 5855 5855 5856 5856 5857 5857 5858 5858 5858 5858 5858 5857 5857 5857 5857 5856 5855 5854 5853 5853 5852 5851 5850 5849 5848 5847 5846 5845 5844 5843 5842 5842 5841 5840 5840 5839 5839 5839 5839 5839 5839 5839 5839
5850 5852 5852 5852 5853 5853 5854 5854 5854 5855 5854 5854 5854 5855 5854 5854 5853 5853 5852 5851 5850 5849 5849 5848 5847 5846 5845 5844 5843 5842 5842 5841 5840 5839 5839 5838 5838 5838 5838 5838 5838 5838 5838 5838
5847 5848 5848 5849 5850 5850 5851 5851 5851 5850 5851 5850 5851 5851 5851 5850 5850 5850 5849 5848 5848 5847 5846 5845 5845 5844 5843 5842 5841 5840 5839 5839 5838 5837 5837 5837 5837 5836 5836 5836 5836 5836 5836 5836
5843 5844 5845 5846 5846 5846 5847 5847 5847 5846 5846 5847 5847 5847 5848 5847 5847 5847 5846 5845 5845 5844 5843 5843 5842 5842 5841 5840 5839 5838 5837 5837 5836 5835 5835 5835 5835 5835 5835 5835 5834 5835 5835 5835
5840 5840 5841 5842 5842 5843 5843 5843 5843 5842 5842 5843 5843 5843 5844 5843 5843 5843 5843 5842 5841 5841 5840 5840 5840 5839 5838 5838 5837 5836 5835 5835 5834 5834 5833 5833 5833 5833 5833 5833 5833 5833 5833 5833
5836 5836 5837 5838 5838 5838 5839 5839 5839 5838 5838 5839 5839 5838 5840 5839 5839 5838 5838 5838 5838 5837 5837 5837 5836 5836 5835 5835 5834 5833 5833 5832 5832 5832 5831 5831 5831 5831 5831 5831 5831 5831 5831 5831
5832 5833 5833 5833 5834 5834 5834 5834 5835 5834 5834 5834 5834 5834 5836 5835 5834 5834 5834 5834 5834 5834 5833 5833 5833 5833 5832 5831 5831 5830 5830 5830 5829 5829 5829 5829 5829 5829 5829 5829 5829 5829 5829 5829
5827 5828 5829 5829 5829 5829 5829 5829 5829 5829 5828 5829 5829 5830 5831 5830 5829 5829 5829 5829 5830 5830 5829 5829 5829 5829 5829 5828 5827 5827 5827 5826 5827 5827 5827 5827 5827 5827 5827 5827 5827 5827 5827 5827
5823 5824 5824 5824 5824 5824 5825 5825 5825 5824 5824 5824 5825 5826 5826 5826 5825 5825 5825 5825 5825 5825 5825 5825 5825 5825 5825 5824 5824 5824 5824 5823 5824 5824 5824 5824 5824 5825 5825 5825 5825 5825 5825 5825
5818 5819 5819 5819 5819 5820 5820 5820 5819 5819 5819 5819 5819 5823 5822 5821 5820 5820 5820 5820 5820 5820 5821 5821 5821 5821 5821 5821 5820 5820 5820 5820 5820 5821 5821 5821 5821 5822 5822 5822 5822 5823 5823 5823
5812 5813 5813 5814 5815 5814 5815 5815 5815 5815 5815 5814 5814 5819 5816 5816 5815 5815 5815 5815 5815 5815 5816 5816 5816 5816 5816 5817 5817 5816 5817 5817 5817 5818 5818 5818 5818 5819 5819 5820 5820 5820 5821 5821
5806 5807 5808 5809 5811 5810 5809 5809 5809 5809 5809 5808 5809 5814 5811 5810 5809 5809 5809 5809 5810 5810 5811 5811 5811 5811 5812 5812 5813 5813 5813 5813 5814 5814 5814 5815 5815 5816 5817 5817 5817 5818 5818 5819
5800 5801 5803 5804 5803 5803 5803 5803 5803 5803 5802 5802 5803 5805 5805 5804 5803 5803 5803 5803 5804 5804 5805 5805 5806 5806 5807 5807 5808 5808 5808 5809 5810 5810 5811 5811 5812 5812 5813 5814 5815 5815 5816 5816
5794 5795 5796 5796 5796 5796 5796 5797 5797 5796 5796 5796 5797 5798 5799 5798 5797 5797 5796 5796 5797 5798 5799 5800 5800 5801 5801 5802 5802 5803 5803 5804 5805 5806 5807 5808 5808 5809 5810 5811 5812 5812 5813 5814
5787 5788 5789 5789 5789 5789 5789 5790 5789 5789 5789 5789 5790 5791 5792 5791 5790 5790 5790 5790 5790 5791 5792 5793 5794 5794 5795 5796 5796 5797 5798 5799 5801 5802 5803 5804 5805 5806 5807 5807 5808 5809 5810 5811
5780 5781 5782 5782 5782 5781 5782 5784 5782 5782 5782 5782 5782 5785 5784 5784 5783 5783 5784 5784 5784 5784 5785 5786 5787 5788 5789 5790 5791 5792 5793 5794 5796 5797 5799 5800 5801 5802 5803 5804 5805 5806 5807 5808
5774 5774 5774 5774 5775 5775 5778 5776 5776 5775 5776 5776 5776 5776 5777 5777 5777 5777 5777 5777 5777 5777 5778 5779 5780 5781 5782 5784 5785 5786 5788 5789 5791 5793 5794 5795 5797 5798 5799 5800 5801 5802 5803 5804
5766 5767 5766 5766 5766 5767 5770 5769 5768 5768 5769 5769 5769 5769 5770 5769 5770 5770 5770 5770 5770 5770 5771 5773 5774 5775 5776 5778 5779 5781 5782 5784 5786 5788 5789 5791 5792 5793 5795 5796 5797 5798 5799 5800
5759 5759 5760 5759 5759 5760 5763 5762 5761 5762 5762 5762 5762 5762 5762 5762 5762 5764 5763 5763 5763 5764 5765 5766 5767 5769 5770 5771 5772 5775 5777 5779 5781 5782 5784 5785 5787 5788 5790 5791 5793 5794 5795 5796
5752 5752 5753 5752 5751 5752 5755 5754 5754 5755 5756 5755 5754 5755 5755 5755 5755 5756 5756 5756 5756 5757 5758 5759 5761 5762 5763 5765 5766 5768 5770 5772 5774 5776 5778 5780 5782 5783 5785 5787 5788 5789 5791 5792
5744 5744 5745 5745 5745 5748 5747 5746 5746 5746 5746 5746 5746 5746 5746 5746 5747 5748 5748 5749 5749 5750 5752 5753 5754 5755 5757 5758 5759 5761 5763 5766 5768 5770 5772 5774 5776 5778 5780 5781 5783 5784 5786 5787
5736 5737 5737 5738 5739 5739 5738 5737 5738 5737 5738 5738 5738 5738 5738 5739 5739 5740 5740 5741 5741 5743 5745 5746 5747 5749 5750 5751 5752 5754 5756 5758 5761 5763 5765 5768 5770 5772 5774 5776 5777 5779 5780 5782
5729 5729 5729 5729 5729 5730 5730 5729 5729 5729 5729 5729 5729 5730 5730 5731 5731 5732 5732 5733 5734 5736 5737 5739 5740 5742 5743 5744 5745 5747 5749 5751 5753 5756 5759 5761 5763 5765 5768 5770 5772 5773 5775 5776
5721 5721 5720 5720 5721 5721 5721 5721 5721 5720 5720 5720 5720 5720 5721 5722 5723 5724 5725 5725 5727 5728 5730 5731 5733 5734 5735 5737 5738 5740 5741 5744 5746 5749 5751 5754 5756 5759 5761 5763 5765 5767 5769 5770
5713 5713 5713 5713 5713 5712 5713 5712 5712 5711 5711 5711 5711 5712 5712 5713 5714 5715 5716 5717 5718 5720 5721 5723 5725 5726 5728 5729 5731 5732 5734 5736 5739 5741 5744 5746 5749 5751 5754 5756 5759 5760 5762 5764